Skip Page Navigation
NASA JPL Caltech
NASA Logo - Jet Propulsion Laboratory + View the NASA Portal
+ Center for Near-Earth Object Studies
JPL Home Earth Solar System Stars & Galaxies Technology
JPL Solar System Dynamics
BODIES ORBITS EPHEMERIDES TOOLS PHYSICAL DATA DISCOVERY FAQ SITE MAP
JPL Small-Body Database Browser
Search: [ help ]  
(2020 RA6)
Classification: Apollo [NEO]          SPK-ID: 54054282
Ephemeris | Orbit Diagram | Orbital Elements | Mission Design | Physical Parameters | Close-Approach Data ]

[ hide orbit diagram ]

For accurate long-term ephemerides, please instead use our Horizons system.This orbit viewer was implemented using two-body methods, and hence should not be used for determining accurate long-term trajectories (over several years or decades) or planetary encounter circumstances.


[ revert to old Java-based viewer ]

Orbital Elements at Epoch 2459000.5 (2020-May-31.0) TDB
Reference: JPL 7 (heliocentric ecliptic J2000)
 Element Value Uncertainty (1-sigma)   Units 
e .6381549333094376 0.00021108  
a 1.946389904783249 0.00097807 au
q .7042915849021321 5.6928e-05 au
i 7.291350953722355 0.0020843 deg
node 176.7907398212179 5.228e-05 deg
peri 255.0932172898003 0.00060428 deg
M 303.2186776206432 0.045045 deg
tp 2459156.939418795246
(2020-Nov-03.43941880)
0.006186 TDB
period 991.8435923352773
2.72
0.74761
0.002047
d
yr
n .3629604534243012 0.00027359 deg/d
Q 3.188488224664366 0.0016022 au
  Orbit Determination Parameters
   # obs. used (total)      110  
   data-arc span      12 days  
   first obs. used      2020-09-06  
   last obs. used      2020-09-18  
   planetary ephem.      DE431  
   SB-pert. ephem.      SB431-N16  
   condition code      7  
   norm. resid. RMS      .54114  
   source      ORB  
   producer      Otto Matic  
   solution date      2020-Nov-11 05:27:07  

Additional Information
 Earth MOID = .00304093 au 
 Jupiter MOID = 2.18516 au 
 T_jup = 3.607 
[ show covariance matrix ]

Ephemeris | Orbit Diagram | Orbital Elements | Mission Design | Physical Parameters | Close-Approach Data ]

Physical Parameter Table
Parameter Symbol Value Units Sigma Reference Notes
absolute magnitude H 25.976   .45549 7 autocmod 2.8

[ show close-approach data ]
Ephemeris | Orbit Diagram | Orbital Elements | Mission Design | Physical Parameters | Close-Approach Data ]
ABOUT SSD CREDITS/AWARDS PRIVACY/COPYRIGHT GLOSSARY LINKS
FirstGov 2020-Dec-01 00:40 UT
(server date/time)  
NASA Home Page
Site Manager:   Ryan S. Park
Webmaster  Alan B. Chamberlin